Date,TemperatureHighF,TemperatureAvgF,TemperatureLowF,DewpointHighF,DewpointAvgF,DewpointLowF,HumidityHigh,HumidityAvg,HumidityLow,PressureMaxIn,PressureMinIn,WindSpeedMaxMPH,WindSpeedAvgMPH,GustSpeedMaxMPH,PrecipitationSumIn
2015-1-1,20.3,12.8,-2.4,13.9,7.2,-7.6,82,78,72,30.47,30.27,8,1,9,0.00
2015-1-2,16.8,2.5,-6.4,7.8,-3.4,-11.7,89,76,67,30.69,30.36,4,0,5,0.00
2015-1-3,36.6,24.7,2.8,23.7,16.0,-3.0,82,70,50,30.42,29.97,13,1,13,0.01
2015-1-4,44.1,31.9,5.0,19.1,13.9,-0.9,86,49,33,30.58,30.28,24,3,24,0.06
2015-1-5,52.5,46.1,33.2,28.5,24.5,16.5,53,43,32,30.24,29.99,27,5,27,0.03
2015-1-6,53.7,40.5,22.8,32.7,27.1,16.7,80,60,42,30.59,30.21,11,1,11,0.00
2015-1-7,28.1,22.6,16.2,24.1,18.9,12.5,87,85,81,30.82,30.62,7,1,7,0.00
2015-1-8,52.9,38.1,19.1,28.9,23.1,9.9,78,56,33,30.50,30.08,9,1,11,0.00
2015-1-9,28.1,24.7,22.2,22.5,20.1,18.1,92,83,78,30.37,30.28,6,1,6,0.00
2015-1-11,46.5,37.1,22.7,27.6,23.8,16.4,78,60,42,30.20,29.98,7,0,7,0.00
2015-1-12,35.5,29.8,24.1,28.4,25.4,20.2,92,84,71,30.34,30.16,11,1,11,0.00
2015-1-13,35.7,28.9,20.2,30.3,25.0,17.0,89,85,71,30.34,30.09,11,2,11,0.00
2015-1-14,36.2,26.6,14.1,26.2,20.5,9.3,87,78,65,30.44,30.13,8,0,8,0.07
2015-1-15,47.2,28.5,7.9,20.7,13.3,2.5,79,56,29,30.76,30.41,7,0,7,0.01
2015-1-16,55.0,39.1,12.2,17.6,10.2,1.8,76,34,12,30.50,29.98,23,2,23,0.00
2015-1-17,48.7,37.5,23.0,16.3,11.6,6.0,61,36,18,30.44,30.03,23,2,25,0.00
2015-1-18,52.3,46.0,38.1,24.2,17.7,-1.6,47,33,17,30.26,29.96,16,3,16,0.00
2015-1-19,50.6,44.8,28.1,21.6,18.1,12.8,57,35,24,30.22,29.98,19,5,20,0.00
2015-1-20,41.2,32.0,21.2,26.6,22.3,14.1,83,68,47,30.23,30.04,12,1,12,0.00
2015-1-21,26.0,22.1,15.7,23.1,17.9,10.6,92,84,79,30.46,30.12,8,2,10,0.00
2015-1-22,28.2,17.0,-4.2,12.5,5.9,-9.1,82,63,42,30.80,30.50,9,0,9,0.03
2015-1-23,40.7,26.9,2.3,20.5,13.3,-4.6,74,57,41,30.79,30.36,8,1,8,0.03
2015-1-24,40.0,30.8,12.6,22.0,17.3,6.2,79,59,36,30.48,30.17,8,0,8,0.01
2015-1-25,50.5,38.1,17.5,27.7,22.4,11.5,78,54,38,30.43,30.19,10,1,10,0.00
2015-1-26,62.7,45.3,23.6,28.9,24.0,16.6,75,47,22,30.52,30.16,8,0,8,0.00
2015-1-27,58.3,44.0,23.7,29.7,23.6,17.0,76,46,26,30.42,29.99,11,1,13,0.00
2015-1-28,49.2,42.7,30.3,25.9,22.3,19.2,66,45,31,30.22,29.93,23,4,24,0.00
2015-1-29,39.1,33.2,27.8,26.4,22.8,20.4,78,66,49,30.56,30.37,11,1,11,0.00
2015-1-30,27.8,27.1,26.8,22.4,22.0,21.3,83,81,78,30.38,30.31,0,0,0,0.00
2015-1-31,40.2,33.5,29.9,32.8,29.8,27.1,90,86,72,29.91,29.69,10,1,11,0.03
2015-2-1,38.8,28.3,16.4,24.4,18.1,12.1,92,68,34,30.34,30.03,13,2,13,0.01
2015-2-2,48.5,40.2,26.7,22.5,19.2,13.9,70,44,32,30.12,29.90,23,5,23,0.00
2015-2-3,53.4,44.7,31.2,24.3,21.4,18.1,61,40,28,30.08,29.82,18,3,18,0.00
2015-2-4,48.4,32.8,22.4,27.4,23.1,18.6,86,69,37,30.31,29.88,15,2,15,0.00
2015-2-5,53.5,45.5,23.7,25.3,19.1,15.7,77,38,24,30.42,30.14,27,5,28,0.00
2015-2-6,61.4,54.2,39.2,16.9,12.6,7.5,34,19,13,30.12,29.82,32,3,32,0.00
2015-2-7,61.8,54.9,43.2,23.7,17.8,6.8,43,24,15,29.87,29.60,27,5,28,0.00
2015-2-8,59.1,48.3,30.9,26.0,21.9,16.8,62,37,20,30.20,29.93,18,3,19,0.00
2015-2-9,60.5,49.0,22.7,27.5,21.9,14.6,83,38,17,30.34,29.84,20,3,20,0.00
2015-2-10,56.2,49.4,37.0,28.1,20.9,17.0,63,34,24,29.99,29.74,18,3,18,0.00
2015-2-11,40.1,34.0,26.5,29.7,26.4,20.5,89,74,52,30.47,30.28,12,2,12,0.06
2015-2-12,50.6,38.1,19.9,26.2,22.8,15.0,81,56,34,30.59,30.19,11,1,11,0.00
2015-2-13,59.0,45.0,24.4,27.8,24.9,18.8,79,49,25,30.42,30.13,11,1,11,0.00
2015-2-14,64.2,49.5,23.2,27.9,19.9,12.9,78,36,15,30.39,29.96,12,2,12,0.01
2015-2-15,53.9,38.4,23.3,27.4,23.0,18.7,85,58,27,30.16,29.71,14,2,14,0.00
2015-2-16,25.1,20.9,15.2,20.6,16.4,11.5,89,83,78,30.36,30.17,8,1,8,0.04
2015-2-17,32.9,23.0,-4.4,14.6,8.6,-9.5,81,55,37,30.56,30.24,21,2,21,0.03
2015-2-18,49.3,33.8,11.1,22.1,16.4,4.0,77,51,29,30.39,30.15,9,1,13,0.06
2015-2-19,55.3,48.8,26.3,23.0,17.9,12.8,59,30,20,30.19,29.83,21,6,21,0.01
2015-2-20,49.9,44.0,29.8,25.7,20.4,15.9,76,41,28,29.78,29.47,38,9,38,0.00
2015-2-21,36.7,31.9,24.9,24.7,22.1,17.9,85,68,48,30.01,29.73,16,2,16,0.00
2015-2-22,9.6,9.6,9.6,4.4,4.4,4.4,79,79,79,30.38,30.38,5,2,5,0.00
2015-2-23,22.2,13.1,2.9,15.9,7.3,-1.9,83,77,73,30.70,30.36,6,0,6,0.04
2015-2-24,34.4,26.3,11.6,21.2,16.2,7.2,85,67,49,30.55,30.19,7,1,8,0.14
2015-2-25,40.8,31.0,15.6,25.6,20.6,9.1,86,67,42,30.20,29.89,19,2,19,0.02
2015-2-26,19.7,14.6,8.8,14.3,9.7,4.2,84,81,78,30.36,30.11,10,1,10,0.02
2015-2-27,17.4,7.8,-6.4,10.6,2.2,-11.4,90,78,72,30.44,30.13,6,1,8,0.00
2015-2-28,28.4,19.0,0.2,20.9,13.2,-4.9,84,78,70,30.36,30.05,12,2,12,0.01
2015-3-1,39.8,28.2,19.1,26.7,20.7,14.9,92,74,55,30.37,30.11,12,2,13,0.06
2015-3-2,46.8,42.2,37.0,33.6,28.6,21.2,84,60,36,29.98,29.44,20,5,27,0.05
2015-3-3,40.4,31.6,21.0,22.8,18.2,14.0,85,60,37,29.86,29.55,15,3,18,0.00
2015-3-4,20.8,15.5,4.5,15.9,9.9,-0.3,92,78,65,30.54,30.08,15,1,15,0.00
2015-3-5,38.9,23.2,-1.0,16.6,8.0,-7.8,76,54,29,30.81,30.41,8,1,11,0.01
2015-3-6,48.7,35.8,12.5,24.4,15.9,4.9,75,46,26,30.66,30.31,11,1,13,0.01
2015-3-7,51.9,38.4,14.7,25.7,19.5,9.4,79,48,31,30.58,30.11,7,1,9,0.00
2015-3-8,47.8,39.0,20.0,27.2,23.6,14.3,79,55,39,30.30,30.03,8,1,12,0.00
2015-3-9,49.9,39.1,21.0,29.0,24.5,17.0,92,58,35,30.17,29.91,10,2,11,0.00
2015-3-10,52.9,42.9,20.8,25.4,20.4,15.3,84,44,23,30.25,30.07,10,3,11,0.00
2015-3-11,57.8,44.9,22.5,27.9,21.7,13.8,82,45,18,30.42,30.11,11,2,18,0.00
2015-3-12,51.1,39.6,31.7,27.2,24.7,22.1,72,57,35,30.22,30.06,7,1,9,0.00
2015-3-13,44.8,39.2,34.4,34.8,31.8,27.0,87,75,63,30.40,30.23,14,2,15,0.07
2015-3-14,57.7,46.0,25.2,32.2,21.7,10.0,88,44,16,30.51,30.17,10,2,10,0.00
2015-3-15,67.8,54.9,26.9,28.3,22.1,14.1,76,32,13,30.39,29.99,11,1,11,0.00
2015-3-16,70.3,58.0,30.1,29.9,24.0,18.3,62,30,16,30.19,29.86,14,2,14,0.00
2015-3-17,54.8,43.4,36.6,36.7,33.8,31.4,84,70,48,30.22,29.93,12,2,12,0.00
2015-3-18,64.2,49.3,33.0,40.2,36.4,30.4,91,65,31,29.96,29.66,14,2,14,0.14
2015-3-19,40.1,36.9,34.3,37.5,33.0,31.1,92,86,73,30.18,29.91,10,1,11,0.21
2015-3-20,56.0,44.6,30.7,34.5,29.6,23.5,89,59,31,30.27,30.02,10,1,10,0.00
2015-3-21,60.2,49.2,24.2,28.8,19.6,8.7,85,36,14,30.25,29.91,10,1,10,0.00
2015-3-22,61.3,52.4,25.0,29.7,23.0,18.0,79,35,20,30.15,29.89,16,2,16,0.00
2015-3-23,58.6,50.5,32.2,31.5,22.6,16.1,78,36,22,30.00,29.63,41,8,41,0.00
2015-3-24,59.0,50.0,37.5,22.3,15.4,6.3,41,25,18,29.88,29.65,30,7,31,0.00
2015-3-25,44.6,31.8,18.4,30.4,24.5,14.6,89,76,45,30.36,29.79,31,2,31,0.02
2015-3-26,56.2,41.0,17.1,29.6,21.9,12.8,92,51,26,30.48,30.07,28,4,28,0.01
2015-3-27,64.1,48.4,26.2,31.7,26.3,20.2,81,47,23,30.25,29.94,24,3,24,0.00
2015-3-28,67.3,57.1,27.0,31.0,25.4,20.0,79,33,17,30.20,29.82,27,4,27,0.00
2015-3-29,63.9,59.3,47.5,30.9,28.7,22.5,44,31,24,30.00,29.82,15,2,15,0.00
2015-3-30,64.5,54.1,28.3,32.9,20.6,14.8,76,31,15,30.20,29.94,20,4,21,0.00
2015-3-31,66.3,56.3,27.7,28.4,23.5,18.6,72,31,17,30.12,29.69,21,3,21,0.00
2015-4-1,61.9,52.9,42.9,31.0,25.4,18.6,47,35,24,29.67,29.48,30,5,30,0.00
2015-4-2,56.6,45.4,29.3,33.7,22.1,12.9,84,45,20,29.96,29.55,36,5,36,0.00
2015-4-3,50.8,37.9,24.2,23.7,20.6,17.1,82,52,31,30.33,29.94,13,2,13,0.00
2015-4-4,59.0,48.0,18.6,24.9,15.1,7.7,80,32,16,30.31,29.78,28,6,28,0.00
2015-4-5,62.8,54.7,40.8,25.8,19.4,14.1,49,26,18,29.71,29.44,33,7,33,0.00
2015-4-6,62.4,56.4,45.5,16.7,13.0,9.8,27,18,13,29.61,29.45,41,10,41,0.00
2015-4-7,62.1,53.3,39.3,15.2,10.4,6.3,28,18,13,29.78,29.56,34,8,35,0.00
2015-4-8,59.0,52.6,39.3,24.7,18.2,9.2,42,27,16,29.57,29.26,40,10,40,0.00
2015-4-9,56.5,43.5,19.9,26.0,17.7,5.9,68,38,20,30.11,29.85,16,2,16,0.00
2015-4-10,21.8,21.6,21.4,16.9,16.7,16.5,81,81,81,30.19,30.18,4,0,4,0.00
2015-4-11,59.5,54.7,22.9,25.4,19.1,14.4,78,26,18,30.04,29.71,23,4,23,0.00
2015-4-12,60.9,54.3,35.7,21.2,16.2,9.9,44,23,15,29.86,29.64,29,6,29,0.00
2015-4-13,64.8,50.8,26.8,25.5,20.3,9.8,67,32,16,30.20,29.80,12,2,12,0.00
2015-4-14,63.9,54.3,24.3,25.1,19.3,14.6,68,29,16,30.12,29.75,22,4,24,0.00
2015-4-15,53.9,48.8,32.4,21.5,5.8,-0.5,36,17,12,29.77,29.45,34,6,34,0.00
2015-4-16,38.2,34.2,31.0,30.8,28.5,24.1,89,80,64,30.04,29.84,13,1,13,0.01
2015-4-17,42.1,34.3,26.9,27.8,21.4,13.7,89,61,35,30.09,29.90,16,2,16,0.00
2015-4-18,46.8,38.3,18.9,29.7,23.1,14.3,82,56,38,30.08,29.80,21,4,21,0.01
2015-4-19,51.1,43.1,33.1,30.7,25.7,18.7,75,52,30,30.08,29.83,22,4,22,0.00
2015-4-20,55.5,45.4,30.1,33.0,28.5,22.5,92,55,28,29.98,29.68,23,4,24,0.00
2015-4-21,30.3,28.9,26.5,24.9,23.7,21.5,81,80,80,29.94,29.90,3,0,4,0.00
2015-4-22,61.1,52.6,29.5,36.5,31.0,24.0,82,46,26,29.88,29.67,16,2,16,0.00
2015-4-23,30.1,28.5,26.7,25.6,24.0,22.2,83,83,83,29.96,29.92,2,0,2,0.00
2015-4-24,54.2,47.4,36.6,31.9,25.9,21.9,65,43,29,29.67,29.42,23,4,23,0.02
2015-4-25,57.3,50.3,31.5,29.1,25.5,21.1,65,39,31,29.75,29.51,19,4,19,0.00
2015-4-26,49.9,38.5,33.9,36.8,32.8,27.8,90,80,55,29.90,29.52,15,2,15,0.25
2015-4-27,42.9,37.8,33.3,36.1,33.0,30.5,92,83,67,30.25,30.08,11,4,11,0.02
2015-4-28,56.2,46.4,33.9,33.5,28.7,22.1,88,53,28,30.32,30.00,12,2,12,0.00
2015-4-29,29.9,28.2,27.7,26.2,24.4,23.8,86,85,85,30.07,30.05,1,0,1,0.00
2015-4-30,61.4,46.1,33.2,40.6,34.6,28.9,86,67,34,29.92,29.75,8,1,8,0.00
2015-5-1,65.7,56.3,39.9,45.9,40.8,33.3,86,58,34,29.94,29.72,23,3,23,0.00
2015-5-2,71.2,56.8,37.5,45.1,35.5,28.2,89,49,22,29.94,29.70,34,3,34,0.00
2015-5-3,38.7,38.6,38.6,32.3,32.1,32.0,78,77,77,29.84,29.84,0,0,0,0.00
2015-5-4,39.1,38.9,38.8,35.1,34.8,34.7,86,85,85,29.89,29.88,1,0,1,0.01
2015-5-5,46.7,45.2,43.6,43.6,41.3,39.3,92,86,81,29.74,29.60,11,2,12,0.16
2015-5-6,59.5,53.7,46.2,40.2,37.9,35.4,72,56,42,29.59,29.45,33,3,33,0.00
2015-5-7,59.5,51.4,42.6,36.0,32.1,26.3,72,50,30,29.75,29.65,9,0,9,0.00
2015-5-8,66.1,52.1,43.7,43.3,37.9,21.9,86,61,20,29.77,29.47,24,3,24,0.01
2015-5-9,56.2,40.7,33.7,38.4,31.4,22.6,90,73,29,29.73,29.45,15,2,15,0.12
2015-5-11,60.1,48.9,29.2,40.8,30.7,25.0,88,53,28,30.14,29.92,18,1,18,0.22
2015-5-12,65.2,55.9,37.2,42.3,34.8,30.0,90,48,30,30.07,29.69,22,2,22,0.00
2015-5-13,60.0,53.8,45.7,41.7,36.7,32.2,79,53,38,29.75,29.61,21,2,21,0.01
2015-5-14,65.0,57.2,37.9,37.9,33.2,27.2,84,43,25,29.90,29.66,20,1,20,0.00
2015-5-15,56.2,52.1,48.8,35.5,32.8,27.8,59,48,41,29.58,29.47,18,3,18,0.00
2015-5-16,57.8,49.9,36.1,33.2,27.6,21.6,72,43,26,29.64,29.42,21,4,23,0.00
2015-5-17,64.1,57.5,46.3,34.6,29.1,25.0,44,34,24,29.78,29.69,21,4,21,0.00
2015-5-18,58.2,50.1,44.2,43.8,39.6,37.1,87,68,48,30.07,29.97,16,1,16,0.13
2015-5-19,51.5,41.7,34.2,42.5,37.1,31.3,91,84,64,30.06,29.77,21,3,21,0.48
2015-5-20,59.6,51.0,34.4,41.5,33.1,27.2,91,54,33,30.10,29.93,13,1,13,0.00
2015-5-22,61.5,52.9,39.5,42.8,34.4,26.6,90,52,30,29.87,29.68,28,3,28,0.09
2015-5-23,59.0,51.5,37.5,42.3,33.8,24.0,86,53,29,29.83,29.63,37,3,37,0.04
2015-5-24,53.9,47.5,32.8,39.0,34.5,27.6,82,61,42,29.82,29.62,22,2,22,0.00
2015-5-25,60.2,54.0,41.4,42.2,36.1,32.2,75,52,36,29.73,29.62,21,3,21,0.02
2015-5-28,67.8,56.5,45.7,41.7,37.4,32.9,74,50,30,29.96,29.70,26,3,26,0.02
2015-5-29,68.0,53.0,33.5,42.6,34.2,27.1,84,54,23,30.03,29.84,18,2,18,0.00
2015-5-30,72.2,59.8,40.6,47.9,39.4,30.6,89,51,24,30.09,29.84,9,1,10,0.00
2015-5-31,73.9,60.1,40.2,49.2,43.0,35.8,90,57,28,30.04,29.80,23,2,23,0.01
2015-6-1,41.8,41.7,41.5,37.3,36.9,36.5,84,83,82,30.01,29.97,0,0,0,0.00
2015-6-2,78.6,69.1,52.0,44.1,33.6,26.5,60,29,17,29.77,29.40,20,3,20,0.00
2015-6-3,78.3,70.9,41.3,49.5,39.2,24.9,63,35,15,29.71,29.53,15,2,15,0.00
2015-6-4,79.8,68.1,47.5,47.9,33.4,22.6,88,36,13,29.71,29.59,16,2,16,0.00
2015-6-5,70.8,63.0,47.1,51.2,43.6,36.8,83,51,31,29.83,29.70,18,2,18,0.00
2015-6-6,70.5,62.2,51.0,47.6,43.8,39.3,79,53,34,29.86,29.63,20,3,20,0.05
2015-6-7,70.6,60.0,43.0,44.3,40.6,36.5,79,51,31,29.94,29.75,28,4,28,0.00
2015-6-8,77.5,64.8,40.3,46.4,39.1,29.0,89,44,18,30.08,29.79,14,1,14,0.00
2015-6-9,81.0,68.5,43.1,51.0,43.6,34.0,88,46,19,29.89,28.11,13,1,13,0.00
2015-6-10,73.6,63.7,55.0,54.3,49.9,47.3,80,62,41,29.63,29.32,13,1,14,0.15
2015-6-11,76.6,66.5,45.9,49.0,43.7,38.3,83,47,27,29.67,29.37,31,3,31,0.00
2015-6-12,66.3,58.5,50.1,52.2,47.1,44.7,87,67,48,29.78,29.55,19,2,19,0.04
2015-6-13,77.3,64.0,42.0,50.7,44.4,38.7,89,52,30,29.83,29.53,28,2,28,0.00
2015-6-14,75.8,60.0,40.7,47.7,44.0,36.5,91,58,25,29.95,29.61,21,2,27,0.00
2015-6-15,73.8,60.4,39.5,49.4,44.5,35.4,86,59,38,30.04,29.82,11,1,11,0.00
2015-6-16,74.7,65.0,49.3,55.5,47.0,42.1,91,55,33,30.00,29.71,28,2,28,0.01
2015-6-17,81.7,69.3,47.6,53.2,46.8,40.0,86,48,24,29.93,27.88,15,1,15,0.29
2015-6-18,83.0,68.9,44.8,53.2,44.9,33.0,89,48,18,29.98,29.44,23,2,23,0.02
2015-6-19,83.9,74.0,46.3,49.6,44.1,36.8,79,37,20,29.95,23.74,23,2,23,0.00
2015-6-20,88.0,76.4,45.8,49.3,42.4,32.1,77,33,16,29.75,26.36,10,1,10,0.00
2015-6-21,90.0,75.8,44.7,52.9,42.7,33.6,85,38,15,29.81,22.48,15,2,15,0.00
2015-6-22,89.8,77.0,54.7,54.5,42.6,31.0,57,32,15,29.72,27.22,16,1,16,0.00
2015-6-23,74.4,59.9,48.1,54.5,50.2,43.5,89,72,48,29.91,29.76,8,0,9,0.00
2015-6-24,84.5,69.6,55.0,52.6,46.1,39.0,68,46,23,29.94,22.15,28,1,28,0.03
2015-6-25,81.6,69.6,44.1,50.6,44.8,38.5,81,44,25,30.01,27.20,16,2,16,0.00
2015-6-26,81.7,67.4,50.1,56.1,51.3,43.5,79,58,36,30.00,29.26,16,2,16,0.00
2015-6-27,84.3,72.9,55.3,56.4,48.2,40.5,87,46,25,30.01,29.15,14,2,14,0.00
2015-6-28,81.3,68.5,46.7,51.7,46.1,40.9,84,50,26,29.96,29.19,19,2,19,0.00
2015-6-29,78.7,70.3,52.0,51.0,48.8,46.7,82,49,34,29.97,28.66,15,2,15,0.00
2015-6-30,86.1,73.3,49.4,53.3,48.7,43.7,84,45,24,29.91,28.04,12,2,12,0.00
2015-7-1,85.2,71.7,55.4,57.6,50.5,47.0,81,50,30,29.85,26.54,12,1,12,0.18
2015-7-2,73.8,62.9,50.6,55.4,52.7,47.2,92,71,49,29.89,29.75,9,1,10,0.00
2015-7-3,80.2,64.5,48.2,57.4,51.4,44.9,92,66,31,29.97,29.52,29,1,36,0.14
2015-7-4,83.8,68.0,49.6,54.7,50.1,44.2,88,56,26,29.86,29.16,22,2,22,0.02
2015-7-5,79.8,69.7,50.1,56.5,51.5,45.5,85,55,34,29.82,22.50,18,2,19,0.00
2015-7-6,77.1,61.4,53.4,56.0,52.9,49.6,89,75,41,29.92,28.91,10,1,10,0.02
2015-7-7,60.7,55.0,51.3,55.3,51.1,48.2,92,87,77,29.97,29.81,10,1,10,0.00
2015-7-8,69.9,56.4,47.5,54.7,48.8,44.7,92,77,45,29.86,29.31,18,1,18,0.00
2015-7-9,76.2,58.5,44.2,52.9,46.2,39.7,91,68,30,29.94,29.25,22,2,22,0.01
2015-7-10,74.5,61.8,47.6,50.9,43.5,36.3,92,55,29,29.85,29.66,19,2,19,0.00
2015-7-11,79.2,65.1,47.2,45.6,42.0,37.7,78,46,26,29.92,29.69,23,2,23,0.00
2015-7-12,81.3,67.0,59.0,52.6,46.1,42.7,61,48,31,29.91,29.12,19,1,21,0.00
2015-7-13,83.1,64.1,54.3,54.9,48.7,42.9,83,59,29,29.90,27.84,12,1,12,0.01
2015-7-14,80.0,61.3,51.7,54.6,50.6,47.8,88,70,33,29.86,28.04,19,1,21,0.00
2015-7-15,77.2,63.6,49.5,52.8,48.1,45.1,86,60,34,29.85,28.70,20,1,20,0.00
2015-7-16,78.8,61.7,44.0,50.3,42.9,35.8,88,55,24,29.91,27.64,23,1,23,0.00
2015-7-17,78.7,63.5,45.8,52.4,42.9,38.9,78,50,25,29.84,29.21,32,2,32,0.00
2015-7-18,79.0,63.6,50.3,52.8,46.1,40.9,79,56,27,29.89,25.23,18,1,18,0.00
2015-7-19,78.3,64.4,53.7,55.4,50.2,46.0,83,62,34,29.90,27.70,14,1,14,0.00
2015-7-20,70.1,59.6,52.3,56.1,52.9,49.2,92,80,49,29.95,28.88,23,1,23,0.06
2015-7-21,77.4,62.1,49.0,56.9,50.4,44.9,92,69,34,29.92,28.67,26,2,26,0.00
2015-7-22,79.8,63.6,45.8,53.8,45.6,39.5,92,57,25,29.86,28.53,16,2,16,0.00
2015-7-23,82.2,66.6,46.6,53.8,45.8,39.7,87,52,24,29.86,29.14,16,1,16,0.00
2015-7-24,81.5,63.7,50.8,56.4,49.0,43.9,87,62,31,29.89,23.43,16,1,19,0.00
2015-7-25,82.8,66.8,52.5,56.1,49.6,42.6,89,60,25,29.89,27.17,14,0,14,0.00
2015-7-26,82.9,65.5,49.2,56.5,48.2,43.6,83,58,29,29.81,23.17,18,1,20,0.00
2015-7-27,79.5,71.0,59.9,53.0,47.7,42.0,65,44,31,29.69,27.70,18,2,18,0.00
2015-7-28,82.9,66.5,47.8,49.7,43.2,38.4,70,46,23,29.80,23.07,13,1,14,0.00
2015-7-29,75.2,60.5,52.7,58.1,48.5,42.2,84,65,46,30.03,29.21,10,1,10,0.00
2015-7-30,77.7,62.2,47.4,54.9,49.5,44.0,92,66,34,30.13,27.22,11,0,11,0.00
2015-7-31,78.2,63.2,47.6,54.8,49.2,43.4,88,63,35,30.09,27.76,15,1,15,0.00
2015-8-1,81.0,63.6,52.1,53.9,49.3,42.9,85,63,28,29.93,22.95,14,1,14,0.00
2015-8-2,77.1,64.1,53.3,51.9,48.9,45.1,83,60,34,29.87,23.99,16,1,16,0.02
2015-8-3,77.0,62.8,54.4,54.7,50.8,46.4,89,68,35,29.83,27.72,34,1,34,0.02
2015-8-4,79.6,68.1,49.5,49.5,43.1,39.2,84,44,25,29.86,29.02,30,5,30,0.00
2015-8-5,85.5,66.1,42.6,48.3,43.0,37.5,84,48,23,29.98,27.67,14,1,14,0.00
2015-8-6,84.7,71.8,55.6,43.6,37.0,28.4,52,30,16,29.75,23.05,21,4,21,0.00
2015-8-7,77.4,59.6,46.7,49.2,42.5,33.8,76,54,34,29.78,24.17,24,1,27,0.00
2015-8-8,78.3,67.0,56.7,51.0,46.9,43.6,71,50,31,29.72,24.83,22,1,22,0.00
2015-8-9,81.9,64.8,44.4,48.3,42.8,35.3,82,50,20,29.92,23.84,12,1,15,0.00
2015-8-10,76.7,62.0,48.8,61.2,51.3,44.5,89,70,44,30.01,28.96,16,1,16,0.08
2015-8-11,81.0,62.8,53.2,60.3,53.7,49.4,92,75,36,30.03,26.97,20,1,20,0.12
2015-8-12,84.0,68.7,52.4,57.5,50.0,42.2,90,57,24,30.10,29.26,12,1,12,0.00
2015-8-13,84.8,67.9,50.5,56.3,50.3,46.2,88,58,28,30.06,27.80,18,1,20,0.00
2015-8-14,81.8,69.3,54.3,55.8,52.9,50.1,86,58,36,30.06,27.64,11,1,11,0.00
2015-8-15,85.7,66.2,53.6,55.8,51.7,46.0,88,64,27,29.95,27.87,16,1,16,0.09
2015-8-16,80.2,64.2,53.1,57.0,53.1,48.7,86,69,42,29.95,28.61,16,1,16,0.02
2015-8-17,80.5,62.6,53.8,56.2,50.8,42.0,89,69,28,29.91,27.87,20,1,21,0.22
2015-8-18,78.7,61.8,45.0,50.9,42.8,31.4,90,56,18,29.80,29.42,23,2,23,0.00
2015-8-19,70.2,55.9,46.3,48.2,43.2,40.5,83,64,39,29.90,29.64,11,0,11,0.00
2015-8-20,76.9,61.2,38.0,48.1,38.0,30.6,88,50,20,29.94,29.57,18,2,21,0.00